Location: Bettgenhausen
(50.6463°N, 7.5681°E)
Time: 10:59:05
(UTC+00:00)

STARLINK-69 - Pass Details

Date: 27 February 2020
Orbit: 529 x 530 km, 53.0° (Epoch: 09 April)

Event Time Altitude Azimuth Distance (km) Brightness Sun altitude
Rises 17:31:22 0° 262° (W) 2,665 10.3 -4.7°
Reaches altitude 10° 17:33:36 10° 265° (W) 1,777 8.2 -5.0°
Maximum altitude 17:37:37 68° 350° (N) 574 3.7 -5.7°
Drops below altitude 10° 17:41:38 10° 73° (ENE) 1,780 5.6 -6.3°
Enters shadow 17:42:06 - 74° (ENE) 1,962 5.8 -6.4°
